TimeEDT,TemperatureF,Dew PointF,Humidity,Sea Level PressureIn,VisibilityMPH,Wind Direction,Wind SpeedMPH,Gust SpeedMPH,PrecipitationIn,Events,Conditions,WindDirDegrees,DateUTC
12:51 AM,57.0,28.9,34,30.16,10.0,SE,4.6,-,N/A,,Clear,140,2013-04-23 04:51:00
1:51 AM,57.0,28.0,33,30.16,10.0,SSE,3.5,-,N/A,,Clear,150,2013-04-23 05:51:00
2:51 AM,53.1,28.9,40,30.16,10.0,SE,4.6,-,N/A,,Clear,130,2013-04-23 06:51:00
3:51 AM,50.0,30.0,46,30.16,10.0,East,3.5,-,N/A,,Clear,100,2013-04-23 07:51:00
4:51 AM,48.9,30.0,48,30.15,10.0,ESE,4.6,-,N/A,,Clear,110,2013-04-23 08:51:00
5:51 AM,48.0,30.0,50,30.15,10.0,East,4.6,-,N/A,,Clear,100,2013-04-23 09:51:00
6:51 AM,45.0,30.9,58,30.14,10.0,Calm,Calm,-,N/A,,Clear,0,2013-04-23 10:51:00
7:51 AM,51.1,30.0,44,30.17,10.0,Calm,Calm,-,N/A,,Clear,0,2013-04-23 11:51:00
8:51 AM,55.0,33.1,43,30.16,10.0,South,4.6,-,N/A,,Clear,180,2013-04-23 12:51:00
9:51 AM,59.0,34.0,39,30.18,10.0,SSW,5.8,-,N/A,,Clear,210,2013-04-23 13:51:00
10:51 AM,63.0,36.0,37,30.16,10.0,SW,4.6,-,N/A,,Clear,230,2013-04-23 14:51:00
11:51 AM,68.0,39.9,36,30.14,10.0,South,9.2,-,N/A,,Clear,190,2013-04-23 15:51:00
12:51 PM,71.1,41.0,34,30.11,10.0,Variable,6.9,-,N/A,,Clear,0,2013-04-23 16:51:00
1:51 PM,72.0,42.1,34,30.09,10.0,WSW,8.1,-,N/A,,Clear,240,2013-04-23 17:51:00
2:51 PM,73.0,42.1,33,30.06,10.0,SSW,8.1,-,N/A,,Partly Cloudy,210,2013-04-23 18:51:00
3:51 PM,73.9,41.0,30,30.03,10.0,South,10.4,-,N/A,,Partly Cloudy,180,2013-04-23 19:51:00
4:51 PM,73.0,42.1,33,30.01,10.0,SSE,6.9,-,N/A,,Clear,150,2013-04-23 20:51:00
5:51 PM,73.0,41.0,31,30.01,10.0,Variable,4.6,-,N/A,,Clear,0,2013-04-23 21:51:00
6:51 PM,72.0,41.0,33,29.98,10.0,South,5.8,-,N/A,,Clear,170,2013-04-23 22:51:00
7:51 PM,69.1,42.1,38,29.96,10.0,South,4.6,-,N/A,,Clear,170,2013-04-23 23:51:00
8:51 PM,69.1,41.0,36,29.95,10.0,SSE,4.6,-,N/A,,Overcast,150,2013-04-24 00:51:00
9:51 PM,66.9,41.0,39,29.95,10.0,Calm,Calm,-,N/A,,Partly Cloudy,0,2013-04-24 01:51:00
10:51 PM,64.0,41.0,43,29.95,10.0,Calm,Calm,-,N/A,,Clear,0,2013-04-24 02:51:00
11:51 PM,63.0,43.0,48,29.94,10.0,SSW,5.8,-,N/A,,Clear,210,2013-04-24 03:51:00